www.pogodaiklimat.ru

Погода и климат >> Архив погоды >> Россия >> Эвенкия >> Байкит


АРХИВ ПОГОДЫ в Байките

Время (UTC), дата Ветер
(напр.,м/с)
 
Видим.   Явления Облачность Т
(С)
Тd
(С)
f
(%)
Тe
(С)
Тes
(С)
Комфортность P
(гПа)
Po
(гПа)
Тmin
(С)
Tmax
(С)
R
(мм)
R24
(мм)
S
(см)
15 14.07 СЗ 2 50 км 9/9 1000 м
[Cb cap Ci sp]
+15.6 +11.7 78 +16 +16 1011.1 982.0
18 14.07 СЗ 2 4000 м 9/8 1000 м
[Sc Ci fib]
+13.2 +11.3 88 +12 +12 1011.6 982.3
21 14.07 С 2 4000 м дымка 4/0
[Ac trans Ci fib]
+10.9 +10.1 95 +9 +9 1012.3 982.6
00 15.07 Ю 1 4000 м дымка 9/3 1000 м
[Sc Ac trans Ci fib]
+12.0 +11.2 95 +12 +13 1012.9 983.3 +10.6
03 15.07 штиль 0 50 км 9/6 600 м
[Cb cap Ac trans]
+15.0 +12.1 83 +15 +18 1013.0 983.8
06 15.07 С 2 20 км 10/5 1000 м
[Cu med, cong Ac trans Ci sp]
+23.5 +16.1 63 +27 +30 душно 1011.5 983.1
09 15.07 С 3 20 км 9/4 1000 м
[Cu med, cong Ci sp]
+25.0 +16.2 58 +28 +32 жарко 1010.8 982.6
12 15.07 СЗ 4 50 км слаб. ливневой дождь 10/10 600 м
[Cb cap]
+24.0 +16.9 65 +28 +28 душно 1011.2 982.9 +32.7 0.0
15 15.07 С 2 50 км {ливн. осадки} 9/8 600 м
[Cb cap Ci ing]
+20.8 +16.5 76 +25 +25 комфорт 1011.6 983.1
18 15.07 С 3 4000 м {ливн. осадки} 6/0
[Ac trans Ci sp]
+21.1 +13.9 63 +24 +24 комфорт 1011.9 983.4
21 15.07 СВ 3 50 км 9/0
[Ci sp]
+20.0 +13.4 66 +22 +22 комфорт 1012.3 983.7
00 16.07 С 3 50 км 9/0
[Ci sp]
+20.9 +14.0 65 +24 +26 комфорт 1012.4 983.9 +19.2 0.0
03 16.07 СВ 2 50 км 9/0
[Ci fib]
+26.1 +15.4 52 +29 +37 жарко 1011.6 983.5
06 16.07 В 2
{10}
50 км 9/3 1000 м
[Cu hum Ci fib]
+28.9 +14.4 41 +31 +38 жарко 1010.5 982.7
09 16.07 В 2 50 км 10/6 1000 м
[Cb cap Cs]
+28.0 +14.9 45 +31 +33 душно 1010.4 982.5
12 16.07 СВ 2 20 км 10/1 1000 м
[Sc Cs]
+27.0 +15.4 49 +30 +31 душно 1010.5 982.5 +29.9
15 16.07 С 2 10 км дым 10/1 1000 м
[Sc Cs]
+23.5 +15.2 60 +26 +26 жарко 1011.1 982.7
18 16.07 СЗ 2 4000 м 6/1 1000 м
[Sc Ci fib]
+21.2 +14.6 66 +24 +24 комфорт 1011.3 982.8
21 16.07 С 2 10 км дым 1/0
[Ci fib]
+21.5 +13.6 61 +24 +24 комфорт 1010.8 982.3
00 17.07 С 1 4000 м дым ясно +20.4 +15.7 74 +24 +28 комфорт 1011.0 982.4 +17.0
03 17.07 В 1 20 км ясно +27.1 +15.9 50 +30 +42 душно 1009.5 981.6
06 17.07 В 1 20 км 1/1 1000 м
[Cu hum]
+30.5 +15.3 40 +33 +46 душно 1008.0 980.4
09 17.07 В 1 20 км 1/1 1000 м
[Cu hum]
+31.4 +16.3 40 +34 +43 душно 1006.6 979.3
12 17.07 С 1 20 км 3/0
[Ci fib]
+28.0 +15.7 47 +31 +33 душно 1006.9 979.2 +31.8
15 17.07 СЗ 3 4000 м дым 5/0
[Ci fib]
+22.8 +14.1 58 +26 +26 жарко 1008.2 979.9
18 17.07 З 1 4000 м ясно +19.0 +14.0 73 +21 +21 комфорт 1008.6 979.9
21 17.07 СЗ 1 20 км 3/0
[Ci fib]
+15.4 +13.8 90 +16 +16 1009.5 980.4
00 18.07 С 3 20 км 1/0
[Ci fib]
+22.4 +15.0 63 +26 +28 жарко 1010.0 981.6 +15.2
03 18.07 С 2 20 км 6/0
[Ci sp]
+24.0 +14.6 56 +27 +35 жарко 1009.8 981.6
06 18.07 В 2 20 км 3/0
[Cc]
+27.6 +14.9 46 +30 +42 жарко 1008.9 981.1
09 18.07 СВ 2 20 км 3/1 1000 м
[Cu hum Cc]
+28.5 +15.5 45 +31 +38 душно 1008.5 980.8
12 18.07 СВ 3 50 км 1/0
[Ci sp]
+27.0 +13.1 42 +29 +30 жарко 1008.9 981.0 +29.2
15 18.07 С 3 50 км 1/1 1000 м
[Cu hum]
+21.6 +10.9 51 +23 +23 комфорт 1010.8 982.3
18 18.07 С 1 4000 м 1/0
[Ci sp]
+19.2 +8.2 49 +21 +21 комфорт 1012.0 983.2
21 18.07 СЗ 1 4000 м дым ясно +16.3 +6.5 52 +17 +17 1013.8 984.7
00 19.07 С 2 4000 м дым 1/1 1000 м
[Cu hum]
+16.2 +6.7 53 +16 +19 1015.2 986.0 +15.6
03 19.07 СВ 3 4000 м дым ясно +19.6 +7.3 45 +21 +29 комфорт 1015.3 986.5
06 19.07 СВ 4
{12}
10 км дым 1/1 1000 м
[Cu hum]
+21.8 +6.3 37 +23 +30 комфорт 1014.7 986.1
09 19.07 СВ 5-11
{11}
20 км 1/1 1000 м
[Cu hum]
+23.0 +6.5 34 +24 +27 комфорт 1013.8 985.3
12 19.07 С 5-10
{11}
20 км ясно +21.4 +5.0 34 +22 +23 комфорт 1014.2 985.5 +23.5
15 19.07 С 3
{10}
10 км дым ясно +17.4 +2.8 38 +17 +17 1016.1 987.0
18 19.07 С 3 4000 м дым ясно +14.5 +2.9 46 +14 +14 1017.2 987.8
21 19.07 С 3 4000 м дым ясно +13.1 +3.0 50 +12 +12 1017.7 988.2
00 20.07 С 4-10
{10}
4000 м дым ясно +14.2 +4.2 51 +13 +15 1018.2 988.7 +12.0
03 20.07 СВ 4
{10}
20 км 8/1 1000 м
[Cu hum Ac trans Cc]
+17.2 +3.7 41 +17 +20 1017.3 988.2
06 20.07 СВ 4
{10}
20 км 10/5 1000 м
[Sc Ac trans Cs]
+18.4 +4.1 39 +18 +21 1015.5 986.5
09 20.07 С 5-10
{14}
20 км 9/3 1000 м
[Sc Ac trans Ci fib]
+20.8 +4.7 35 +21 +23 комфорт 1014.4 985.7
12 20.07 СВ 2
{10}
4000 м дым 9/0
[Ac trans Cc]
+20.8 +4.7 35 +22 +23 комфорт 1013.8 985.2 +21.3
15 20.07 С 3 2000 м дым 9/0
[Ac cast Ci fib]
+19.2 +3.6 36 +20 +20 1014.8 985.9
18 20.07 С 4 500 м мгла {туман} ?/? +18.0 +3.8 39 +18 +18 1014.8 985.8
21 20.07 СВ 4
{10}
500 м мгла {туман} ?/? +15.9 +2.6 41 +15 +15 1014.7 985.5
00 21.07 СВ 3 500 м мгла {туман} 8/0
[Ac cast Ci sp]
+15.1 +3.5 46 +15 +16 1015.3 986.0 +14.8
03 21.07 СВ 3 500 м мгла {туман} 6/0
[Ci sp]
+18.8 +6.4 44 +19 +26 1013.9 985.1
06 21.07 В 2
{11}
4000 м дым {туман} 4/0
[Ci sp]
+21.2 +6.7 39 +22 +33 комфорт 1012.5 983.9
09 21.07 С 3 2000 м мгла 5/0
[Ci sp]
+21.4 +7.8 42 +22 +28 комфорт 1011.3 982.8
12 21.07 С 3 1000 м мгла {туман} ?/? +20.2 +7.3 43 +21 +21 комфорт 1011.1 982.4 +22.3

 

Местоположение метеостанции Байкит (Эвенкия, Россия): широта 61.67 долгота 96.37 высота над уровнем моря 248 м.

В архиве по умолчанию представлена погода в Байките за последнюю неделю. Архивные данные за месяц целиком и за предыдущие месяцы, начиная с января 2011 года, Вы можете получить, выбрав интересующий диапазон дат из раскрывающегося списка и нажав кнопку "Ввод!".


*Определитесь, кто Вы:
робот инопланетянин человек

Внимание! Время в таблицах - всемирное. Для получения местного времени необходимо прибавить поправку, которая равна 7 ч.

Смотрите также архив погоды в соседних городах и на ближайших метеорологических станциях:

Погода в Усть-Камо (Эвенкия, Россия) (122 км)
Погода в Вельмо (Красноярский край, Россия) (173 км)
Погода в Муторае (Эвенкия, Россия) (217 км)
Погода в Северо-Енисейском (Красноярский край, Россия) (230 км)
Погода в Кузьмовке (Эвенкия, Россия) (233 км)
Погода в Кербо (Эвенкия, Россия) (272 км)
Погода в Тутончанах (Эвенкия, Россия) (310 км)
Погода в Бору (Красноярский край, Россия) (336 км)
Погода в Стрелке-Чуне (Эвенкия, Россия) (339 км)
Погода в Ванаваре (Эвенкия, Россия) (353 км)

Пояснения к столбцам:

Ветер - указаны скорость ветра в м/с - средняя за 10 мин, порывы в срок и между сроками (в фигурных скобках) и направление, откуда дует ветер: С - северный, СВ - северо-восточный, В - восточный, ЮВ - юго-восточный, Ю - южный, ЮЗ - юго-западный, З - западный, СЗ - северо-западный.
Видимость - горизонтальная дальность видимости в метрах или километрах. При видимости от 1 до 10 км при отсутствии осадков обычно наблюдается дымка, при ухудшении видимости до 1 км и менее - туман. В сухую погоду видимость может ухудшаться дымом, пылью или мглою.
Явления - указаны атмосферные явления, наблюдавшиеся в срок или в последний час перед сроком; фигурными скобками обозначены явления, наблюдавшиеся между сроками (за 1-3 часа до срока); квадратными скобками обозначены град или гололедные отложения с указанием их диаметра в мм.
Облачность - указаны через наклонную черту общая и нижняя облачность в баллах и высота нижней границы облаков в метрах; квадратными скобками обозначены формы облаков: Ci - перистые, Cs - перисто-слоистые, Cc - перисто-кучевые, Ac - высококучевые, As - высокослоистые, Sc - слоисто-кучевые, Ns - слоисто-дождевые, Cu - кучевые, Cb - кучево-дождевые. Подробнее классификацию облаков см. в Атласе облаков (PDF).
T - Температура воздуха - температура, измеренная на высоте 2 м над землей.
Td - Температура точки росы - температура, при понижении до которой содержащийся в воздухе водяной пар достигнет насыщения.
f - Относительная влажность воздуха - влажноcть воздуха, измеренная на высоте 2 м над землей.
Te - Эффективная температура - температура, которую ощущает одетый по сезону человек в тени. Характеристика душности погоды. При расчете учитывается влияние влажности воздуха и скорости ветра на теплоощущения человека.
Tes - Эффективная температура на солнце - температура, которую ощущает человек, с поправкой на солнечный нагрев. Характеристика знойности погоды. Зависит от высоты солнца над горизонтом, облачности и скорости ветра. Ночью, в пасмурную погоду, а также при ветре 12 м/с и более поправка равна нулю.
P - Атмосферное давление - приведенное к уровню моря атмосферное давление.
Po - Атмосферное давление - измеренное на уровне метеостанции атмосферное давление.
Tmin - Минимальная температура - минимум температуры воздуха на высоте 2 м над землей.
Tmax - Максимальная температура - максимум температуры воздуха на высоте 2 м над землей.
R - Количество осадков - Количество выпавших осадков за период времени, мм. При наведении курсора мыши на число - период времени, за который выпало указанное количество осадков.
R24 - Количество осадков - Количество выпавших осадков за 24 часа, мм.
S - Снежный покров - Высота снежного покрова, см. При наведении курсора мыши на число - состояние снежного покрова и степень покрытия местности в баллах.